Skip Page Navigation
NASA JPL Caltech
NASA Logo - Jet Propulsion Laboratory + View the NASA Portal
+ Center for Near-Earth Object Studies
JPL Home Earth Solar System Stars & Galaxies Technology
JPL Solar System Dynamics
BODIES ORBITS EPHEMERIDES TOOLS PHYSICAL DATA DISCOVERY FAQ SITE MAP

Significant website upgrade scheduled for September 27. More details available here.

JPL Small-Body Database Browser
Search: [ help ]  
15422 (1998 QP45)
Classification: Main-belt Asteroid          SPK-ID: 2015422
Ephemeris | Orbit Diagram | Orbital Elements | Mission Design | Physical Parameters | Discovery Circumstances | Close-Approach Data ]

[ show orbit diagram ]
Orbital Elements at Epoch 2459396.5 (2021-Jul-01.0) TDB
Reference: JPL 38 (heliocentric ecliptic J2000)
 Element Value Uncertainty (1-sigma)   Units 
e .1689272946001475 1.2554e-08  
a 2.590759371068783 9.4592e-09 au
q 2.153109399554154 3.5692e-08 au
i 12.24509457908696 9.2417e-07 deg
node 191.4969871287149 1.4863e-06 deg
peri 340.5223169521407 5.8566e-06 deg
M 346.7696611261012 8.7403e-06 deg
tp 2459452.476728213272
(2021-Aug-25.97672821)
3.7163e-05 TDB
period 1523.137264196122
4.17
8.3417e-06
2.284e-08
d
yr
n .2363542725021568 1.2944e-09 deg/d
Q 3.028409342583412 1.1057e-08 au
  Orbit Determination Parameters
   # obs. used (total)      2369  
   data-arc span      24655 days (67.50 yr)  
   first obs. used      1953-11-11  
   last obs. used      2021-05-13  
   planetary ephem.      DE441  
   SB-pert. ephem.      SB441-N16  
   condition code      0  
   norm. resid. RMS      .44165  
   source      ORB  
   producer      Otto Matic  
   solution date      2021-Aug-25 14:00:11  

Additional Information
 Earth MOID = 1.16207 au 
 Jupiter MOID = 1.94997 au 
 T_jup = 3.368 
[ hide covariance matrix ]
Orbital Elements at Epoch 2456910.5 (2014-Sep-10.0) TDB
Reference: JPL 38 (heliocentric ecliptic J2000)
 Element Value Uncertainty (1-sigma)   Units 
e .1685173023565844 1.2619e-08  
q 2.154333184901968 3.5861e-08 au
tp 2456407.937463406257
(2013-Apr-25.43746341)
3.0313e-05 TDB
node 191.5328466658466 1.4855e-06 deg
peri 340.7938392582519 5.8494e-06 deg
i 12.24645253521422 9.2427e-07 deg
  Orbit Determination Parameters
   # obs. used (total)      2369  
   data-arc span      24655 days (67.50 yr)  
   first obs. used      1953-11-11  
   last obs. used      2021-05-13  
   planetary ephem.      DE441  
   SB-pert. ephem.      SB441-N16  
   condition code      0  
   norm. resid. RMS      .44165  
   source      ORB  
   producer      Otto Matic  
   solution date      2021-Aug-25 14:00:11  

Additional Information
 Jupiter MOID = 1.94997 au 
 T_jup = 3.368 
Orbit Covariance (6×6)
  e q tp node peri i
e 1.592393611394071E-16 -4.425955904294248E-16 5.538929809743679E-14 -6.419621414935334E-16 1.137632050528646E-14 6.565782247854752E-15
q -4.425955904294248E-16 1.286015770980169E-15 -9.967061068362148E-14 1.40455802686463E-15 -1.582296614581912E-14 -1.732007407628712E-14
tp 5.538929809743679E-14 -9.967061068362148E-14 9.188787270540476E-10 1.003516540939501E-12 1.716491583043931E-10 1.809812288427112E-12
node -6.419621414935334E-16 1.40455802686463E-15 1.003516540939501E-12 2.206590426037585E-12 -1.570032515380397E-12 2.405319575522771E-13
peri 1.137632050528646E-14 -1.582296614581912E-14 1.716491583043931E-10 -1.570032515380397E-12 3.421570472269482E-11 2.485968977978615E-13
i 6.565782247854752E-15 -1.732007407628712E-14 1.809812288427112E-12 2.405319575522771E-13 2.485968977978615E-13 8.542813911793139E-13

Ephemeris | Orbit Diagram | Orbital Elements | Mission Design | Physical Parameters | Discovery Circumstances | Close-Approach Data ]

Physical Parameter Table
Parameter Symbol Value Units Sigma Reference Notes
absolute magnitude H 13.31   n/a MPO636296  
diameter diameter 11.562 km 0.085 urn:nasa:pds:neowise_diameters_albedos::2.0[mainbelt] (http://adsabs.harvard.edu/abs/2011ApJ...741...68M)  
rotation period rot_per 4.425 h n/a LCDB (Rev. 2020-October); Warner et al., 2009 Result based on less than full coverage, so that the period may be wrong by 30 percent or so.
Published Reference List:
[Waszczak, A.; Chang, C.-K.; Ofeck, E.O.; Laher, F.; et al. (2015) Astron. J. 150, A75.]
geometric albedo albedo 0.061   0.017 urn:nasa:pds:neowise_diameters_albedos::2.0[mainbelt] (http://adsabs.harvard.edu/abs/2011ApJ...741...68M)  

15422 (1998 QP45)          Discovered 1998-Aug-17 by LINEAR at Socorro
Reference: 20000621/Numbers.arcLast Updated: 2004-04-19

[ show close-approach data ]
Alternate Designations
 1998 QP45 = 2000 AO188 
Ephemeris | Orbit Diagram | Orbital Elements | Mission Design | Physical Parameters | Discovery Circumstances | Close-Approach Data ]
ABOUT SSD CREDITS/AWARDS PRIVACY/COPYRIGHT GLOSSARY LINKS
FirstGov 2021-Sep-23 13:16 UT
(server date/time)  
NASA Home Page
Site Manager:   Ryan S. Park
Webmaster  Alan B. Chamberlin